Starlink 32188

operational
NORAD ID: 60365 Int'l Des: 2024-138 Owner: SPXS Country: US Constellation: starlink
LEOCIRCULAR

关于 Starlink 32188

正在加载描述...

实时位置

正在加载3D地球...

即将过境

高度历史

Altitude vs Time

uPlot chart will show altitude changes over time

两行轨道根数

1 60365U 24138L 25308.58997043 -.00000258 00000-0 34234-5 0 9998
2 60365 53.1594 170.7234 0001102 93.9783 266.1344 15.30192963 71470
Epoch: Nov 4, 2025 • Age: 9 hours

当前状态

高度 494.5 km
速度 7.62 km/s
星下点 -53.26°S, 43.65°E
发射日期 Aug 4, 2024
运行时间 1.2 years
类型 internet

技术详情

分类 Payload
质量 730.00 kg
干质量 700.00 kg
总质量 730.00 kg
长度 0.30 m
直径 4.10 m
跨度 29.00 m
形状 Box + pan
制造商 SPXS
平台类型 Starlink V2M
阶段状态 In Orbit
所有者/国家 SPXS/US

大型星座

Loading constellations...